Imperial, NE

3:29 AM MDT on July 21, 2017 (GMT -0600)
Imperial Municipal

Weather History for KIML - July, 2013

Change the Weather History Date:

Saturday, July 20, 2013

  Actual Average Record
Temperature  
Mean Temperature 75 °F 77 °F  
Max Temperature 90 °F 92 °F 116 °F (1934)
Min Temperature 59 °F 63 °F 40 °F (1900)
Degree Days  
Heating Degree Days 0 0  
Month to date heating degree days 0 0  
Since 1 June heating degree days 24 34  
Cooling Degree Days 10 12  
Month to date cooling degree days 237 224  
Year to date cooling degree days 536 452  
Since 1 June cooling degree days 468 408  
Growing Degree Days 24 (Base 50)    
Moisture  
Dew Point 60 °F    
Average Humidity 68    
Maximum Humidity 100    
Minimum Humidity 36    
Precipitation  
Precipitation 0.00 in 0.09 in 1.80 in (1978)
Sea Level Pressure  
Sea Level Pressure 29.90 in    
Wind  
Wind Speed 7 mph (SE)    
Max Wind Speed 32 mph    
Max Gust Speed 43 mph    
Visibility 9 miles    
Events      
T = Trace of Precipitation, MM = Missing Value Source: NWS Daily Summary

Daily Weather History Graph

Daily Weather History Graph

Search for Another Location

Airport or City:

Trip Planner

Search our weather history database for the weather conditions in past years. The results will help you decide how hot, cold, wet, or windy it might be!

Date:

Astronomy

Jul. 20, 2013 Rise Set
Actual Time 5:33 AM MDT 8:12 PM MDT
Civil Twilight 5:01 AM MDT 8:43 PM MDT
Nautical Twilight 4:21 AM MDT 9:23 PM MDT
Astronomical Twilight 3:36 AM MDT 10:08 PM MDT
Moon 6:17 PM MDT (7/20) 3:15 AM MDT (7/20)
Length of Visible Light 15h 42m
Length of Day
14h 39m
Waxing Gibbous, 94% of the Moon is Illuminated
Jul 20
Waxing Gibbous
Jul 22
Full
Jul 29
Last Quarter
Aug 6
New
Aug 14
First Quarter

Hourly Weather History & Observations

Time (MDT) Temp. Heat Index Dew Point Humidity Pressure Visibility Wind Dir Wind Speed Gust Speed Precip Events Conditions
12:53 AM 63.0 °F - 62.1 °F 97% 29.96 in 6.0 mi SSE 3.5 mph - N/A   Clear
1:53 AM 64.0 °F - 61.0 °F 90% 29.93 in 10.0 mi NW 4.6 mph - N/A   Clear
2:53 AM 62.1 °F - 60.1 °F 93% 29.94 in 8.0 mi WSW 5.8 mph - N/A   Clear
3:53 AM 61.0 °F - 60.1 °F 97% 29.94 in 6.0 mi Calm Calm - N/A   Clear
4:53 AM 61.0 °F - 59.0 °F 93% 29.95 in 9.0 mi Calm Calm - N/A   Clear
5:53 AM 59.0 °F - 57.9 °F 96% 29.95 in 4.0 mi Calm Calm - N/A   Clear
6:53 AM 64.0 °F - 61.0 °F 90% 29.93 in 8.0 mi Calm Calm - N/A   Clear
7:53 AM 68.0 °F - 62.1 °F 81% 29.92 in 10.0 mi Calm Calm - N/A   Clear
8:53 AM 73.0 °F - 62.1 °F 68% 29.92 in 10.0 mi Calm Calm - N/A   Clear
9:53 AM 78.1 °F - 62.1 °F 58% 29.93 in 10.0 mi Calm Calm - N/A   Clear
10:53 AM 84.0 °F 84.0 °F 60.1 °F 44% 29.93 in 10.0 mi SE 6.9 mph - N/A   Clear
11:53 AM 84.9 °F 84.4 °F 59.0 °F 41% 29.92 in 10.0 mi East 8.1 mph - N/A   Clear
12:53 PM 87.1 °F 86.1 °F 57.9 °F 37% 29.89 in 10.0 mi East 5.8 mph - N/A   Clear
1:53 PM 88.0 °F 87.1 °F 59.0 °F 37% 29.87 in 10.0 mi ESE 10.4 mph - N/A   Partly Cloudy
2:53 PM 88.0 °F 87.1 °F 59.0 °F 37% 29.86 in 10.0 mi SE 11.5 mph 16.1 mph N/A   Scattered Clouds
3:53 PM 86.0 °F 85.4 °F 59.0 °F 40% 29.85 in 10.0 mi SSE 12.7 mph - N/A   Partly Cloudy
4:53 PM 87.1 °F 86.5 °F 59.0 °F 39% 29.82 in 10.0 mi SSW 6.9 mph - N/A   Clear
5:53 PM 86.0 °F 85.4 °F 59.0 °F 40% 29.82 in 10.0 mi SSE 10.4 mph 17.3 mph N/A   Clear
6:53 PM 84.0 °F 83.8 °F 59.0 °F 43% 29.81 in 10.0 mi South 6.9 mph - N/A   Clear
7:53 PM 79.0 °F - 64.0 °F 60% 29.82 in 10.0 mi SSE 9.2 mph - N/A   Partly Cloudy
8:53 PM 75.9 °F - 64.9 °F 69% 29.87 in 10.0 mi SE 6.9 mph - N/A   Clear
9:53 PM 73.9 °F - 64.9 °F 73% 29.88 in 10.0 mi East 9.2 mph - N/A   Clear
10:53 PM 66.9 °F - 54.0 °F 63% 29.91 in 10.0 mi East 21.9 mph 29.9 mph N/A   Overcast
11:53 PM 63.0 °F - 55.0 °F 75% 29.91 in 10.0 mi ESE 16.1 mph 24.2 mph N/A   Clear